When you browse on this site, cookies collect data to enhance your experience and personalize the content and advertising you see.
Visit our Privacy Policy to learn more. By continuing to use the site, you agree to this use of cookies and data.
  • In Lithuania
  • List of Countries
  • For 7 days
  • Water Temperature
  • Weather Map
  • Weather Widgets
  • user-avatar
    Login

    Hourly Weather Reading

    Today, 25 February, Tuesday

    Time Temperature Precipitation Wind Pressure Humidity
    00:00 +5°C° 0 mm 5 mps 750 mmHg 83%
    01:00 +3°C° 0 mm 5 mps 750 mmHg 83%
    02:00 +3°C° 0 mm 5 mps 749 mmHg 83%
    03:00 +3°C° 0 mm 6 mps 749 mmHg 82%
    04:00 +3°C° 0 mm 5 mps 749 mmHg 84%
    05:00 +2°C° 0 mm 5 mps 749 mmHg 85%
    06:00 +2°C° 0 mm 5 mps 748 mmHg 86%
    07:00 +2°C° 0.1 mm 6 mps 748 mmHg 83%
    08:00 +3°C° 0.1 mm 6 mps 748 mmHg 80%
    09:00 +4°C° 0.1 mm 7 mps 747 mmHg 77%
    10:00 +4°C° 0 mm 7 mps 747 mmHg 74%
    11:00 +5°C° 0 mm 7 mps 747 mmHg 70%
    12:00 +5°C° 0 mm 7 mps 747 mmHg 66%
    13:00 +5°C° 0.3 mm 7 mps 746 mmHg 66%
    14:00 +5°C° 0.3 mm 7 mps 745 mmHg 66%
    15:00 +5°C° 0.3 mm 7 mps 744 mmHg 66%
    16:00 +4°C° 0.7 mm 8 mps 744 mmHg 71%
    17:00 +1°C° 0.7 mm 9 mps 744 mmHg 76%
    18:00 0°C° 0.7 mm 10 mps 743 mmHg 81%
    19:00 0°C° 0.1 mm 9 mps 743 mmHg 80%
    20:00 -1°C° 0.1 mm 8 mps 743 mmHg 80%
    21:00 -1°C° 0.1 mm 7 mps 743 mmHg 80%
    22:00 -1°C° 0 mm 7 mps 744 mmHg 79%
    23:00 -2°C° 0 mm 7 mps 744 mmHg 79%

    Tomorrow, 26 February, Wednesday

    Time Temperature Precipitation Wind Pressure Humidity
    00:00 -2°C° 0 mm 7 mps 744 mmHg 79%
    01:00 -2°C° 0 mm 7 mps 745 mmHg 81%
    02:00 -2°C° 0 mm 7 mps 745 mmHg 83%
    03:00 -2°C° 0 mm 8 mps 745 mmHg 84%
    04:00 -2°C° 0 mm 7 mps 745 mmHg 84%
    05:00 -2°C° 0 mm 7 mps 746 mmHg 83%
    06:00 -2°C° 0 mm 6 mps 746 mmHg 82%
    07:00 -1°C° 0 mm 7 mps 747 mmHg 80%
    08:00 0°C° 0 mm 7 mps 748 mmHg 78%
    09:00 +1°C° 0 mm 8 mps 748 mmHg 75%
    10:00 +1°C° 0.1 mm 8 mps 749 mmHg 74%
    11:00 +2°C° 0.1 mm 8 mps 750 mmHg 72%
    12:00 +3°C° 0.1 mm 9 mps 751 mmHg 70%
    13:00 +4°C° 0.1 mm 8 mps 751 mmHg 67%
    14:00 +4°C° 0.1 mm 8 mps 752 mmHg 63%
    15:00 +4°C° 0.1 mm 8 mps 752 mmHg 60%
    16:00 +3°C° 0 mm 7 mps 752 mmHg 64%
    17:00 +2°C° 0 mm 5 mps 752 mmHg 69%
    18:00 +1°C° 0 mm 4 mps 753 mmHg 74%
    19:00 0°C° 0 mm 4 mps 752 mmHg 75%
    20:00 0°C° 0 mm 4 mps 752 mmHg 77%
    21:00 0°C° 0 mm 4 mps 752 mmHg 79%
    22:00 +1°C° 0 mm 4 mps 751 mmHg 79%
    23:00 +1°C° 0 mm 4 mps 751 mmHg 80%

    Day after tomorrow, 27 February, Thursday

    Time Temperature Precipitation Wind Pressure Humidity
    00:00 +1°C° 0 mm 4 mps 750 mmHg 80%
    01:00 +1°C° 0.4 mm 4 mps 748 mmHg 86%
    02:00 +2°C° 0.4 mm 3 mps 747 mmHg 91%
    03:00 +2°C° 0.4 mm 3 mps 745 mmHg 97%
    04:00 +1°C° 1.7 mm 4 mps 743 mmHg 97%
    05:00 +1°C° 1.7 mm 4 mps 742 mmHg 97%
    06:00 +1°C° 1.7 mm 5 mps 740 mmHg 97%
    07:00 +1°C° 0.9 mm 5 mps 740 mmHg 97%
    08:00 +1°C° 0.9 mm 5 mps 739 mmHg 96%
    09:00 +1°C° 0.9 mm 5 mps 739 mmHg 96%
    10:00 +1°C° 0.1 mm 6 mps 740 mmHg 96%
    11:00 0°C° 0.1 mm 7 mps 742 mmHg 96%
    12:00 0°C° 0.1 mm 8 mps 743 mmHg 95%
    13:00 0°C° 0 mm 8 mps 745 mmHg 89%
    14:00 +1°C° 0 mm 8 mps 746 mmHg 83%
    15:00 +2°C° 0 mm 8 mps 747 mmHg 76%
    16:00 +2°C° 0 mm 7 mps 748 mmHg 78%
    17:00 +1°C° 0 mm 6 mps 749 mmHg 79%
    18:00 0°C° 0 mm 5 mps 750 mmHg 81%
    19:00 0°C° 0 mm 5 mps 751 mmHg 82%
    20:00 0°C° 0 mm 5 mps 752 mmHg 83%
    21:00 -1°C° 0 mm 5 mps 753 mmHg 84%
    22:00 -1°C° 0 mm 4 mps 754 mmHg 84%
    23:00 -1°C° 0 mm 4 mps 755 mmHg 85%

    28 February, Friday

    Time Temperature Precipitation Wind Pressure Humidity
    00:00 -1°C° 0 mm 4 mps 755 mmHg 85%
    01:00 0°C° 0 mm 3 mps 755 mmHg 85%
    02:00 0°C° 0 mm 3 mps 755 mmHg 84%
    03:00 0°C° 0 mm 3 mps 756 mmHg 84%
    04:00 0°C° 0 mm 3 mps 756 mmHg 84%
    05:00 +1°C° 0 mm 2 mps 756 mmHg 83%
    06:00 +1°C° 0 mm 2 mps 756 mmHg 83%
    07:00 +2°C° 0 mm 2 mps 756 mmHg 80%
    08:00 +2°C° 0 mm 3 mps 755 mmHg 78%
    09:00 +3°C° 0 mm 3 mps 755 mmHg 76%
    10:00 +4°C° 0 mm 4 mps 755 mmHg 75%
    11:00 +5°C° 0 mm 5 mps 754 mmHg 75%
    12:00 +4°C° 0 mm 6 mps 754 mmHg 74%
    13:00 +4°C° 0.1 mm 6 mps 753 mmHg 78%
    14:00 +4°C° 0.1 mm 6 mps 752 mmHg 82%
    15:00 +3°C° 0.1 mm 6 mps 751 mmHg 86%
    16:00 +3°C° 0 mm 6 mps 750 mmHg 88%
    17:00 +3°C° 0 mm 6 mps 749 mmHg 90%
    18:00 +3°C° 0 mm 6 mps 748 mmHg 93%
    19:00 +3°C° 0.1 mm 6 mps 747 mmHg 94%
    20:00 +4°C° 0.1 mm 6 mps 746 mmHg 95%
    21:00 +4°C° 0.1 mm 6 mps 745 mmHg 96%
    22:00 +5°C° 0.3 mm 6 mps 744 mmHg 96%
    23:00 +6°C° 0.3 mm 7 mps 743 mmHg 96%

    29 February, Saturday

    Time Temperature Precipitation Wind Pressure Humidity
    00:00 +9°C° 0.3 mm 7 mps 742 mmHg 96%
    01:00 +7°C° 0.3 mm 8 mps 740 mmHg 93%
    02:00 +7°C° 0.3 mm 8 mps 739 mmHg 90%
    03:00 +7°C° 0.3 mm 8 mps 737 mmHg 86%
    04:00 +7°C° 1 mm 9 mps 735 mmHg 88%
    05:00 +7°C° 1 mm 10 mps 734 mmHg 89%
    06:00 +7°C° 1 mm 11 mps 732 mmHg 91%
    07:00 +6°C° 0.6 mm 11 mps 732 mmHg 88%
    08:00 +5°C° 0.6 mm 10 mps 732 mmHg 85%
    09:00 +5°C° 0.6 mm 10 mps 732 mmHg 82%
    10:00 +3°C° 0.2 mm 10 mps 733 mmHg 80%
    11:00 +3°C° 0.2 mm 10 mps 734 mmHg 79%
    12:00 +2°C° 0.2 mm 11 mps 735 mmHg 78%
    13:00 +2°C° 0.2 mm 10 mps 736 mmHg 74%
    14:00 +2°C° 0.2 mm 10 mps 737 mmHg 70%
    15:00 +2°C° 0.2 mm 10 mps 737 mmHg 66%
    16:00 +2°C° 0.1 mm 9 mps 738 mmHg 69%
    17:00 +1°C° 0.1 mm 8 mps 738 mmHg 73%
    18:00 0°C° 0.1 mm 7 mps 739 mmHg 76%
    19:00 0°C° 0.1 mm 7 mps 739 mmHg 79%
    20:00 0°C° 0.1 mm 7 mps 739 mmHg 82%
    21:00 0°C° 0.1 mm 8 mps 740 mmHg 85%
    22:00 0°C° 0 mm 8 mps 740 mmHg 83%
    23:00 0°C° 0 mm 7 mps 740 mmHg 82%

    1 March, Sunday

    Time Temperature Precipitation Wind Pressure Humidity
    00:00 0°C° 0 mm 7 mps 740 mmHg 81%
    01:00 0°C° 0.1 mm 7 mps 740 mmHg 81%
    02:00 +1°C° 0.1 mm 6 mps 740 mmHg 81%
    03:00 +1°C° 0.1 mm 6 mps 740 mmHg 81%
    04:00 -1°C° 0 mm 6 mps 740 mmHg 82%
    05:00 -1°C° 0 mm 6 mps 740 mmHg 82%
    06:00 -1°C° 0 mm 6 mps 740 mmHg 83%
    07:00 +1°C° 0.1 mm 6 mps 740 mmHg 84%
    08:00 +2°C° 0.1 mm 7 mps 739 mmHg 85%
    09:00 +2°C° 0.1 mm 7 mps 739 mmHg 85%
    10:00 +3°C° 0.2 mm 7 mps 739 mmHg 79%
    11:00 +4°C° 0.2 mm 8 mps 739 mmHg 74%
    12:00 +5°C° 0.2 mm 8 mps 739 mmHg 68%
    13:00 +5°C° 0.2 mm 8 mps 739 mmHg 68%
    14:00 +5°C° 0.2 mm 8 mps 738 mmHg 67%
    15:00 +5°C° 0.2 mm 8 mps 738 mmHg 67%
    16:00 +4°C° 0 mm 8 mps 738 mmHg 72%
    17:00 +3°C° 0 mm 7 mps 738 mmHg 77%
    18:00 +2°C° 0 mm 7 mps 739 mmHg 82%
    19:00 +2°C° 0 mm 7 mps 739 mmHg 82%
    20:00 +2°C° 0 mm 7 mps 739 mmHg 82%
    21:00 +2°C° 0 mm 7 mps 740 mmHg 82%
    22:00 0°C° 0 mm 7 mps 740 mmHg 82%
    23:00 0°C° 0 mm 7 mps 740 mmHg 82%
    Show more